sat.trackr.live / text

‹ back to catalog

UNISAT-7

NORAD 47945 · 2021-022P

PAYLOAD ACTIVE UNKNOWN

§ Identity

Operator
Country
IT
Launch date
2021-03-22
Launch site
TYMSC
Launch vehicle
Mass (kg)
RCS (m²)

External: N2YO · Heavens-Above · Gunter

§ Orbital elements

Epoch: 2026-05-25T03:49:38.633088Z

Period
93.52 min
Inclination
97.3910°
Eccentricity
0.0010268
Mean motion
15.39761194 rev/d
Perigee alt
439.8 km
Apogee alt
453.8 km
Semi-major
6,825.0 km
B*
3.3970e-4
RAAN
49.8526°
Arg perigee
145.9652°
Mean anomaly
214.2254°
Rev number
28,631

§ Raw data

UNISAT-71 47945U 21022P   26145.15947492  .00013394  00000+0  33970-3 0  99992 47945  97.3910  49.8526 0010268 145.9652 214.2254 15.39761194286319

JSON: /api/v1/satellites/47945 · /tle

For live sub-satellite position, see the globe view (requires WebGL).

§ Visibility from observer

Set your observer location to see the next 7 days of passes ≥ 10°. The values pass through the URL so the page stays shareable.

No JS? Fill the form by hand. The geolocation button needs JavaScript.

§ Radio — SatNOGS DB

ModeDescriptionDownlinkUplink
FSK TLM 437.425 MHz

1 transmitter · refreshed weekly from db.satnogs.org